Chandler, OK

6:40 PM CST on November 21, 2014 (GMT -0600)
Chandler Municipal | Change Station
CLOSE
Current Station
Airport
Location: Chandler,
Elevation: 984 ft
Nearby Weather Stations

Elev 984 ft 35.72 °N, 96.82 °W | Updated 5 minutes ago

Overcast
Overcast
59 °F
Feels Like 59 °F
N
8
Wind Variable Wind from South

Today
High -- | Low -- °F
--% Chance of Precip.
Yesterday
High -- | Low -- °F
Precip. -- in
7:09 AM 5:17 PM
Waning Crescent, 0% visible
Pressure 30.05 in
Visibility 10.0 miles
Clouds Overcast 800 ft
Dew Point 59 °F
Humidity 100%
Rainfall 0.00 in
Snow Depth Not available.
UV 0 out of 12
Pollen 2.90 out of 12
Air Quality Not available.
Flu Activity Not available.
METAR KCQB 220035Z AUTO 17007KT 10SM OVC008 15/15 A3005 RMK AO2

More Conditions Fewer Conditions

Pressure 30.05 in
Visibility 10.0 miles
Clouds Overcast 800 ft
Dew Point 59 °F
Humidity 100%
Rainfall 0.00 in
Snow Depth Not available.
UV 0 out of 12
Pollen 2.90 out of 12
Air Quality Not available.
Flu Activity Not available.
METAR KCQB 220035Z AUTO 17007KT 10SM OVC008 15/15 A3005 RMK AO2

More Conditions Fewer Conditions

10-Day Weather Forecast

Almanac

Astronomy

Nov. 21, 2014 Rise Set
Actual Time
Civil Twilight
Nautical Twilight
Astronomical Twilight
Moon
Length of Visible Light
Length of Day
Tomorrow will be .
, % of the Moon is Illuminated

Today's Extremes

State Highs State Lows

Community

WunderPhotos

Upload Photos

1,772,745 photos uploaded!

WunderBlogs® & News

Nearby

Air Quality

  Air Quality AQ Index Pollutant
Not available.

Snow Depth

Station Depth Elevation

Earthquake Activity

City Distance Mag. Time & Date
Minimum magnitude displayed is 2.5.

Coastal Water Temperatures

Place Temperature

Nearby Weather Stations